GFSGBSN_925_thetae_099.txt.gz
Theta_e
305 305 305 306 306 306 306 307 305 303 303 303 302 302 302 302 302 301 300 300 300 298 296 296 295 303 305 309 310 307 308 310 310 312 316 314 316 316 317 318 316 316 317 317 317 316 315
305 305 304 305 305 305 305 305 304 303 303 302 302 301 302 302 302 301 300 300 299 298 297 296 296 306 310 309 305 308 309 312 312 315 316 316 316 317 318 318 316 317 317 317 316 316 316
304 303 303 302 303 304 303 303 303 304 303 303 302 302 301 301 301 301 300 300 299 298 297 296 300 309 310 306 304 304 308 309 310 310 309 313 316 316 316 318 318 318 318 318 318 317 317
303 303 302 302 301 302 302 300 300 303 303 302 301 300 301 301 301 301 300 299 298 297 296 296 305 308 310 303 304 308 309 308 308 309 309 311 314 315 317 317 319 318 317 317 318 318 318
303 304 303 302 303 302 302 301 301 302 302 301 300 300 299 301 300 300 298 298 297 296 298 302 308 309 312 311 310 309 310 309 307 307 309 310 312 314 316 317 317 317 318 318 318 318 318
301 302 302 302 302 302 303 302 301 300 302 301 302 301 301 302 300 299 298 297 299 305 306 307 310 311 312 311 310 309 311 309 312 310 308 308 307 308 313 315 320 318 318 319 319 319 319
301 301 301 301 301 301 301 303 301 300 300 302 301 299 299 302 300 299 298 299 305 307 309 313 314 310 311 313 313 307 308 310 309 315 307 307 305 306 306 313 315 317 318 318 318 318 320
300 301 301 301 301 301 301 301 301 300 300 301 300 298 296 300 300 299 298 300 306 305 306 306 306 305 307 311 309 308 306 306 310 317 315 309 307 307 307 309 313 315 316 315 316 317 319
300 300 300 300 299 300 300 300 301 300 300 299 299 298 298 299 299 298 301 302 305 304 304 304 304 305 306 305 305 304 305 306 308 314 318 316 315 311 309 309 311 311 314 316 316 318 320
299 298 298 298 299 299 299 299 300 299 300 299 298 298 298 298 299 300 299 302 305 304 307 305 306 305 305 306 309 308 306 307 308 309 314 317 316 314 309 310 311 312 312 314 317 320 322
299 298 298 298 298 298 297 299 299 297 298 298 298 297 297 298 300 300 299 301 304 306 307 304 307 310 308 309 312 311 310 308 308 308 312 313 314 314 315 315 312 313 313 315 316 319 320
297 297 298 297 298 296 297 299 298 297 297 298 299 298 297 297 300 300 300 302 304 306 307 305 312 311 311 311 311 312 311 309 309 309 308 309 309 310 312 313 314 315 316 317 317 319 323
296 297 297 297 297 297 297 298 298 298 297 298 296 296 297 298 299 300 300 301 305 306 302 302 305 312 312 314 314 313 314 309 309 310 309 308 308 308 310 311 313 314 314 320 323 320 321
296 296 296 296 297 297 297 298 297 297 296 296 296 297 296 298 299 299 300 302 305 302 300 303 306 307 312 311 313 314 312 313 311 311 310 309 311 308 310 310 314 315 315 321 323 326 325
296 296 297 296 297 297 297 297 297 297 297 296 296 297 298 297 298 300 301 302 302 302 303 303 304 307 308 310 309 313 313 313 313 312 314 314 314 316 310 309 313 316 316 315 320 322 327
295 296 296 296 296 297 297 297 297 297 296 296 297 297 298 297 298 300 303 301 302 302 303 302 304 306 307 307 312 313 313 316 315 313 313 318 320 317 317 310 311 315 316 318 319 321 322
295 295 295 296 296 296 296 296 296 296 296 296 296 298 298 299 300 301 301 300 300 301 302 302 303 303 305 308 309 313 312 313 311 310 308 314 316 319 318 312 313 314 315 314 317 319 321
295 295 296 296 296 296 296 296 296 296 296 296 296 296 301 301 302 301 300 300 300 301 302 303 302 302 302 304 308 308 311 312 309 310 309 310 313 320 319 317 317 314 313 313 315 314 318
295 295 295 295 296 296 296 296 296 295 295 296 298 296 300 298 302 299 301 301 300 301 302 303 303 302 302 302 303 308 309 310 309 310 309 308 312 316 322 317 317 318 318 318 313 314 316
295 295 295 294 296 296 296 296 296 294 295 296 298 298 297 299 301 302 302 304 304 303 302 302 302 302 301 302 303 306 306 307 307 309 311 309 309 308 311 316 314 311 312 320 318 316 315
294 295 294 295 296 296 296 296 296 295 295 296 297 295 299 301 301 301 302 302 302 305 303 302 301 300 300 300 302 303 303 304 305 308 307 308 310 309 309 308 308 308 308 311 316 318 322
294 294 294 295 295 295 295 295 295 295 295 295 296 295 296 298 299 301 302 303 302 301 302 304 304 302 301 300 300 301 302 302 307 308 307 308 312 311 311 311 309 309 308 308 309 309 310
294 294 295 295 295 295 295 295 295 295 295 295 295 296 297 296 297 297 299 301 303 302 302 302 304 304 303 304 305 305 305 304 306 307 309 310 310 311 314 311 312 310 309 309 308 308 308
293 294 294 295 294 295 295 294 295 294 295 295 296 296 297 295 296 298 299 299 301 302 303 303 303 304 304 304 306 306 305 306 305 305 305 310 310 311 314 312 314 311 311 310 309 311 312
293 293 294 295 294 294 294 294 294 294 294 295 295 296 297 294 297 297 298 299 300 301 302 302 302 304 303 304 305 305 304 304 305 305 304 305 310 311 313 312 312 310 311 315 317 319 316
292 292 294 294 294 295 294 294 294 294 294 294 295 295 297 297 295 296 298 299 300 301 300 302 302 302 306 305 306 306 305 306 305 307 304 305 307 309 311 312 312 315 314 310 311 320 316
292 293 294 294 294 294 294 294 294 294 294 294 295 295 296 298 296 297 297 299 299 300 301 302 302 303 303 298 304 306 306 307 311 310 307 306 307 309 310 314 314 312 312 311 313 317 314
292 293 294 294 294 293 294 294 294 294 295 295 295 294 295 296 295 296 296 297 298 298 300 300 300 302 304 306 304 304 303 307 311 312 311 307 309 309 310 310 312 311 311 314 315 312 311
292 293 293 293 293 292 293 293 294 295 295 296 295 296 295 296 296 296 297 298 298 298 299 300 302 301 302 304 303 305 305 308 309 313 309 311 310 312 310 309 310 311 313 313 311 311 311

GFSGBSN_925_thetae_102.txt.gz
Theta_e
305 305 305 305 305 305 305 305 304 303 303 303 302 302 303 304 304 303 301 300 300 299 298 300 301 302 305 308 307 303 305 308 311 312 314 315 311 311 313 314 315 315 316 315 314 314 314
304 304 303 303 303 303 304 304 303 303 302 302 302 301 300 301 302 301 300 300 299 298 297 299 301 304 309 307 303 304 308 305 307 315 316 315 314 314 316 316 315 316 316 315 314 313 314
304 304 303 302 302 302 303 302 301 301 302 302 302 302 300 300 299 301 300 299 299 297 297 297 298 306 308 305 301 303 302 303 309 310 308 310 314 314 315 316 315 316 316 315 315 316 315
303 304 304 303 302 302 303 301 302 302 303 303 303 302 300 299 300 301 301 300 298 296 296 297 300 308 307 303 303 303 306 306 309 308 307 308 308 310 313 314 316 317 316 317 317 316 317
302 302 303 303 302 302 301 303 302 302 301 301 303 302 299 297 299 301 301 299 297 302 301 301 305 308 308 308 311 311 311 309 308 308 307 307 309 311 314 315 316 315 319 317 317 316 316
301 301 301 302 302 302 301 301 301 301 301 301 301 301 299 298 296 300 300 301 306 308 307 306 308 309 309 309 310 312 309 310 309 311 306 307 306 306 311 314 318 318 317 317 317 317 316
301 300 302 302 301 301 302 302 302 300 299 300 301 300 298 297 296 299 299 302 303 304 304 308 310 310 309 310 312 311 310 306 307 309 311 306 305 306 306 313 315 316 317 317 317 316 315
300 300 301 300 300 300 300 300 300 299 300 300 300 300 298 298 297 298 299 300 302 303 304 304 305 305 306 307 309 308 308 305 306 307 312 309 306 306 306 306 310 315 316 316 315 314 314
299 300 299 299 299 299 300 300 300 300 300 300 300 297 297 297 297 298 299 298 300 302 304 304 302 303 304 304 304 304 304 303 303 306 312 316 312 308 307 306 307 309 313 314 314 314 313
300 299 299 299 299 299 299 299 299 300 298 298 299 299 298 297 298 298 298 298 301 302 304 303 305 302 303 304 305 303 303 303 304 304 307 315 316 316 311 307 307 307 308 310 311 313 314
298 298 298 298 298 298 298 298 298 299 298 298 298 299 299 298 298 298 298 300 301 304 303 301 304 304 304 305 308 309 304 302 304 307 307 309 315 317 317 314 308 308 309 311 311 312 315
296 296 297 297 297 297 298 297 297 298 298 298 298 298 298 297 297 297 299 300 301 303 302 302 307 308 305 304 309 310 307 305 305 306 306 307 308 309 313 313 312 309 309 310 312 314 318
295 296 296 296 296 297 297 297 298 298 298 296 295 297 297 298 297 297 298 299 302 302 300 299 303 304 306 309 308 310 311 308 307 308 308 307 308 307 307 307 308 311 312 315 318 318 319
295 296 296 296 297 297 297 298 297 296 297 297 297 296 296 296 296 297 299 302 303 298 299 300 303 304 306 311 313 312 312 308 307 308 308 308 308 307 307 307 309 310 312 315 319 322 320
296 295 296 296 296 296 297 297 297 297 297 297 296 296 296 296 296 297 299 301 303 301 302 302 303 304 307 308 311 313 315 313 310 308 311 313 309 313 308 308 308 310 314 314 316 321 321
296 295 295 295 296 296 296 296 296 296 297 297 296 296 296 297 297 298 301 300 300 300 300 300 303 303 303 304 307 312 312 314 313 311 310 314 317 316 317 313 308 312 313 316 315 317 319
295 295 296 295 296 296 296 296 296 296 297 296 296 294 295 300 298 298 300 299 300 299 299 301 302 303 303 303 303 312 311 311 312 311 311 310 315 316 317 315 310 310 312 314 316 317 317
295 295 295 295 296 296 296 296 296 296 296 296 296 296 297 299 300 298 302 301 300 300 300 300 302 303 303 302 302 310 311 309 311 310 313 309 311 317 318 316 315 317 314 316 318 319 318
294 295 295 295 295 296 296 296 296 296 295 296 296 294 297 298 296 301 299 300 301 302 302 300 302 302 302 302 302 306 310 308 309 309 309 308 313 314 319 317 316 313 314 319 317 315 318
294 295 295 295 295 294 296 296 296 296 294 296 295 295 292 299 299 300 302 301 301 302 303 302 302 301 300 300 301 303 305 306 307 308 306 307 310 307 312 318 315 311 310 316 318 316 316
293 294 294 295 293 295 295 296 296 295 295 295 294 294 294 290 295 299 301 301 302 302 303 303 302 302 301 298 299 299 301 302 302 308 310 308 311 310 309 310 310 309 308 309 318 316 316
294 294 294 293 294 295 295 295 295 295 295 295 294 297 295 295 297 297 298 300 302 301 302 304 303 303 303 302 302 305 305 305 304 307 308 309 311 310 311 310 311 311 310 308 311 313 312
293 294 294 293 293 295 295 295 295 295 294 295 294 295 295 295 295 294 296 299 299 300 301 302 303 303 303 304 304 304 304 303 304 305 306 310 310 310 312 312 312 309 309 309 309 310 312
293 293 294 293 295 295 295 295 294 294 295 294 294 295 297 294 295 296 297 297 299 300 302 301 301 302 303 303 303 303 304 304 304 304 304 307 308 308 311 310 312 311 309 309 316 317 315
292 293 293 293 294 295 294 294 294 294 294 295 295 295 296 292 295 296 297 297 298 299 300 300 301 301 302 303 302 304 303 303 303 304 303 304 307 305 308 310 310 308 312 312 315 317 315
293 292 292 292 294 294 293 293 293 294 294 295 294 295 296 297 294 295 297 297 298 298 299 300 300 300 303 302 301 306 304 305 304 304 304 303 304 305 307 309 310 311 312 311 310 319 314
293 293 292 292 294 293 293 293 293 293 293 294 294 294 295 296 294 295 294 296 297 298 298 299 299 299 303 300 304 303 304 305 308 309 305 303 303 307 306 307 311 311 311 310 312 314 313
291 292 292 293 293 294 294 294 294 294 294 294 294 294 294 294 294 294 295 295 295 296 299 298 297 300 300 304 305 303 302 306 307 309 311 305 303 302 305 307 309 309 311 312 313 311 311
291 292 292 292 293 293 294 294 294 294 294 294 295 294 294 294 292 295 295 295 296 297 296 298 299 299 302 302 302 303 304 306 308 311 307 310 306 307 307 307 308 309 311 313 311 309 308

GFSGBSN_925_thetae_105.txt.gz
Theta_e
304 305 304 303 303 303 304 304 304 302 301 302 303 303 303 303 303 303 300 300 300 300 299 301 302 304 304 306 302 302 302 304 310 311 310 312 309 308 309 310 313 314 314 314 314 313 312
304 303 303 303 302 302 303 303 301 302 303 303 302 302 302 302 302 302 300 300 301 299 298 300 302 303 307 304 301 302 306 306 304 312 315 313 312 310 311 311 312 314 315 315 315 315 313
303 304 303 303 303 303 303 303 303 303 303 302 302 302 301 300 300 299 297 299 299 298 299 302 303 304 306 303 300 301 302 303 302 303 312 314 314 314 314 315 314 314 315 314 313 314 314
303 303 304 304 302 302 302 302 303 303 302 302 302 302 301 298 297 297 296 298 299 301 303 303 303 305 305 300 301 304 305 305 304 306 307 308 308 308 310 311 314 316 315 317 315 314 314
301 301 302 302 302 302 302 302 302 302 302 302 302 301 299 297 297 297 296 298 301 305 305 301 304 306 304 304 308 310 310 308 309 307 307 307 307 307 310 313 313 313 316 316 317 315 316
301 301 303 302 302 302 301 302 302 301 299 301 301 301 300 298 297 297 296 300 304 306 306 305 308 307 306 306 310 310 309 309 308 307 308 304 304 305 308 311 315 314 316 316 317 316 315
300 301 301 302 301 300 300 300 301 301 301 300 300 300 300 300 297 297 297 301 300 302 302 302 304 308 307 308 306 310 309 308 306 307 309 306 303 305 306 310 311 313 315 315 316 315 315
299 300 300 300 299 299 299 300 300 300 300 300 300 300 300 299 297 297 299 298 299 300 302 303 303 303 303 304 304 304 305 306 304 305 308 311 307 305 304 305 310 313 315 316 314 314 314
299 300 299 299 299 299 299 299 299 299 299 299 299 299 299 298 297 298 297 298 299 300 303 303 303 303 303 303 303 302 304 304 304 304 306 308 312 311 306 305 306 306 310 313 315 314 312
299 298 298 298 298 298 298 298 298 298 299 299 298 298 298 298 297 297 296 297 299 301 304 302 303 303 301 302 303 302 302 302 301 303 303 307 308 311 307 305 305 305 305 308 309 312 312
297 297 297 298 298 297 297 297 297 298 298 298 298 298 297 297 298 297 296 299 299 302 301 300 302 302 302 302 302 305 301 301 300 302 304 303 315 312 313 314 305 306 307 306 307 308 308
296 296 296 297 297 297 297 298 297 298 298 297 297 297 297 297 297 297 297 296 299 302 302 300 302 302 303 303 303 306 301 301 301 300 304 303 307 312 314 314 311 308 307 308 308 308 310
296 296 296 296 297 297 297 297 298 297 297 296 297 297 297 297 296 296 296 298 299 300 298 298 299 300 302 306 308 304 306 304 304 304 304 305 305 306 307 307 307 309 309 312 315 317 314
297 295 295 296 297 297 297 297 297 296 297 297 297 295 295 295 295 296 297 300 297 298 297 298 298 301 306 306 307 310 310 306 306 306 305 304 304 305 306 306 307 307 309 313 317 318 317
295 297 295 295 296 295 296 296 296 296 297 297 296 295 295 296 296 296 298 292 297 300 303 301 300 303 304 304 305 308 313 314 311 309 308 308 307 306 305 306 307 308 310 310 313 317 319
295 296 295 295 294 296 296 296 296 296 297 297 296 295 295 295 297 297 299 298 298 300 300 300 299 304 302 304 306 305 313 309 312 312 310 311 315 312 314 306 306 308 309 312 314 316 319
295 294 295 296 295 295 296 296 296 296 296 296 295 293 295 297 298 298 295 298 299 299 299 299 300 300 302 304 304 305 312 309 310 309 309 308 311 314 316 313 310 307 310 312 313 313 316
295 294 295 295 295 295 296 296 296 296 296 295 295 288 296 296 295 297 298 300 300 300 300 301 300 301 304 303 302 305 312 308 309 309 311 307 309 312 315 316 313 314 309 310 315 317 315
293 294 294 295 295 295 296 296 296 295 295 295 294 295 296 297 296 294 300 300 300 300 301 301 301 302 303 303 302 302 303 306 307 308 309 308 310 313 316 315 314 313 311 317 315 315 317
293 295 294 295 295 295 295 295 296 295 295 295 293 293 290 299 298 297 299 300 301 301 301 302 302 302 302 300 302 301 301 303 304 306 307 307 309 311 313 311 316 313 309 316 316 315 316
294 294 294 294 295 295 294 296 296 295 295 295 293 294 293 289 294 297 299 299 300 301 301 302 302 302 303 301 301 303 304 304 304 309 307 307 310 310 310 310 313 314 310 309 317 316 316
294 293 293 295 294 294 294 295 295 295 294 295 293 294 297 295 295 296 296 296 299 298 301 303 303 302 302 302 304 305 305 304 304 305 306 309 311 310 311 311 310 314 312 310 311 316 317
293 294 294 294 293 293 294 295 295 295 295 294 294 294 295 293 294 293 295 298 297 298 300 301 301 301 302 302 303 302 302 303 303 304 304 308 311 311 308 310 309 309 311 310 311 312 316
294 294 293 294 294 293 294 295 295 295 294 294 294 294 296 295 296 296 296 296 298 298 299 300 300 300 301 301 302 301 301 303 303 303 303 305 307 309 312 309 307 310 310 313 316 315 312
294 294 293 294 294 293 294 294 294 293 294 294 294 295 295 291 294 295 295 295 296 297 299 300 300 299 299 301 301 303 302 302 302 302 302 303 306 308 310 311 308 310 313 310 316 317 315
293 293 293 293 293 293 294 294 293 293 294 294 294 294 295 295 294 294 296 295 295 296 297 298 299 298 301 300 298 302 303 304 305 305 302 302 303 307 307 308 306 307 310 310 312 318 315
292 292 294 293 292 292 293 293 293 293 293 294 294 294 294 293 293 294 294 294 295 296 296 296 297 298 299 298 301 302 303 303 302 307 309 302 302 305 305 304 308 307 309 308 313 316 314
292 291 293 293 293 292 293 293 293 292 293 294 294 293 293 293 292 293 294 294 293 294 295 295 295 296 298 300 304 305 301 303 304 306 308 307 302 299 302 304 307 306 311 311 311 310 311
292 292 291 292 292 293 292 292 293 294 293 294 294 294 294 294 291 294 294 294 294 295 295 295 296 296 301 301 301 300 301 305 306 307 305 309 306 304 304 304 304 308 311 312 309 308 308

GFSGBSN_925_thetae_108.txt.gz
Theta_e
304 304 304 303 303 303 303 303 302 302 303 303 303 303 303 303 302 301 298 297 296 296 298 302 304 304 301 303 299 301 301 303 311 312 311 310 308 309 309 308 311 312 313 311 311 311 311
303 302 302 302 303 303 304 303 303 303 303 302 302 302 302 302 302 300 298 297 295 296 298 302 305 304 305 302 299 301 302 305 305 309 313 310 310 308 309 308 310 312 312 313 312 313 313
303 303 303 302 302 301 302 302 302 303 302 302 302 302 302 301 299 297 297 296 296 298 301 304 305 304 304 300 299 300 300 300 301 303 304 306 313 313 312 314 313 313 314 312 312 313 313
301 302 302 302 302 301 302 302 302 302 302 302 302 302 300 300 296 296 297 296 299 301 306 304 304 303 302 298 299 302 308 310 309 306 303 305 309 308 311 309 310 314 314 315 314 313 313
301 301 301 302 301 302 302 301 301 302 301 301 301 301 300 299 297 297 296 298 301 305 306 301 303 303 301 301 305 309 309 308 308 306 304 307 305 305 307 309 311 311 313 315 315 313 315
301 301 301 302 301 301 301 300 300 301 301 301 301 300 300 300 298 297 297 300 302 303 302 305 307 305 303 305 308 306 307 308 306 306 306 303 302 303 305 308 309 312 314 315 315 315 314
300 300 300 300 300 299 299 300 300 299 300 300 300 300 300 298 297 297 297 299 298 298 299 299 300 302 301 301 302 303 307 304 305 306 307 303 302 304 304 306 307 309 312 312 314 314 314
299 299 300 299 299 299 299 299 299 299 299 299 299 299 299 296 296 297 298 297 298 298 301 301 301 301 301 301 302 301 302 302 305 304 306 309 305 304 302 304 308 310 311 311 312 313 314
299 299 299 299 299 299 298 298 298 298 299 299 299 297 297 294 295 296 297 297 298 298 301 301 301 301 302 302 302 302 302 303 303 304 304 306 308 309 306 304 305 307 310 311 313 313 311
298 298 298 298 298 298 298 298 298 298 298 298 297 296 297 295 296 296 296 296 296 298 301 300 303 301 301 302 302 301 301 302 302 304 303 304 305 307 308 307 305 305 305 308 309 310 309
297 297 296 297 297 297 297 298 298 297 298 295 294 296 297 296 296 296 296 296 296 301 295 299 300 301 299 301 300 302 300 300 300 300 302 305 305 305 307 308 304 305 305 305 305 307 307
296 296 296 296 296 297 297 297 298 298 296 295 295 297 297 296 296 296 296 295 298 298 297 298 299 299 299 300 303 303 300 300 300 298 299 301 305 306 306 307 306 305 306 307 306 306 308
296 296 296 296 296 297 296 297 297 296 297 297 297 296 296 296 295 296 296 296 294 296 296 298 300 300 299 301 305 305 306 301 301 301 298 299 301 303 306 307 309 308 308 312 313 310 312
296 296 296 295 296 297 295 296 296 296 296 296 296 293 294 295 295 296 296 292 290 295 296 300 300 299 301 301 305 305 310 308 304 304 301 299 301 302 303 306 306 309 311 314 316 318 315
295 296 296 295 294 295 294 296 296 296 296 296 294 294 294 296 296 296 291 287 295 297 299 300 300 300 302 300 301 307 305 311 313 311 310 305 303 303 303 304 306 307 309 309 310 315 316
295 295 296 294 295 294 295 296 296 296 296 296 295 294 294 295 296 296 294 298 296 299 298 300 300 300 300 300 304 306 307 307 309 309 310 310 313 312 309 304 304 307 308 311 310 314 315
295 296 294 295 295 294 295 296 296 296 296 295 295 290 296 297 297 294 293 296 297 298 298 301 300 300 301 301 305 305 306 307 305 307 310 309 310 313 314 310 305 305 307 309 310 311 314
294 293 294 294 295 295 295 295 296 295 295 295 294 287 296 296 292 295 296 298 300 300 300 300 301 301 302 304 306 305 305 304 303 305 311 309 309 312 313 314 313 310 308 308 312 313 313
296 293 292 294 295 294 295 295 296 295 295 294 291 292 295 296 294 291 297 299 300 299 300 301 301 302 302 303 304 302 304 302 302 306 307 308 309 313 315 313 313 312 310 314 309 312 315
296 294 293 293 293 295 295 295 295 295 295 294 291 289 289 298 297 297 292 297 299 299 300 300 302 302 302 302 302 302 304 304 304 306 307 307 311 310 312 311 311 315 310 309 311 311 312
296 295 293 293 292 295 294 295 296 295 294 294 290 288 294 291 292 296 295 298 298 298 300 301 301 301 302 303 302 303 304 304 304 306 307 307 310 310 308 309 311 314 316 311 316 313 313
296 295 293 293 293 295 295 294 294 295 294 294 292 290 294 295 294 295 293 295 298 296 298 301 300 300 300 302 302 303 303 303 304 304 305 307 308 310 308 306 305 312 313 312 312 315 316
296 295 293 292 294 294 294 293 294 295 294 293 293 294 292 292 294 292 294 296 295 296 297 299 300 300 300 301 299 300 301 301 302 303 304 305 308 308 308 308 308 311 312 312 312 312 314
294 294 293 294 294 294 292 294 294 295 294 293 294 293 293 292 294 295 295 294 295 295 296 297 298 299 299 298 299 300 300 302 302 302 303 304 305 308 311 310 305 308 311 310 313 315 312
294 294 294 294 293 294 293 294 294 294 294 294 293 293 294 291 294 294 294 295 295 294 296 298 298 298 297 299 300 301 301 302 301 301 301 301 304 306 310 310 307 310 312 311 313 316 314
294 294 294 294 293 294 294 293 293 293 293 294 294 294 294 292 292 293 294 295 295 294 296 296 296 296 298 298 295 301 302 304 304 303 301 301 302 305 307 309 308 306 308 307 311 317 315
294 293 294 293 293 293 293 293 293 293 292 294 294 294 293 292 291 293 294 294 294 295 295 295 296 296 296 296 300 301 303 302 301 304 307 303 302 304 306 307 308 306 306 307 314 313 314
294 293 292 293 293 293 293 293 293 293 292 294 294 294 293 292 291 292 293 294 293 293 293 293 293 295 297 296 300 302 303 302 303 302 305 307 305 300 302 303 305 304 308 312 310 310 312
294 293 291 291 292 293 293 292 292 293 293 293 294 294 293 293 291 293 293 293 293 293 292 294 294 293 297 297 298 299 300 303 302 305 304 304 307 306 304 303 302 306 309 309 309 308 309

GFSGBSN_925_thetae_111.txt.gz
Theta_e
304 303 303 303 302 303 304 303 302 302 302 302 302 302 302 302 302 301 300 296 296 296 297 299 304 305 299 299 299 299 300 304 309 313 312 310 310 312 312 311 312 314 314 313 313 313 314
302 302 302 302 302 303 303 301 302 302 302 302 302 302 302 301 301 301 298 296 296 298 299 301 305 305 304 297 298 299 300 300 300 307 312 309 310 310 310 310 311 312 313 313 313 313 313
303 303 302 302 302 300 301 301 300 302 302 302 301 301 301 300 300 298 297 297 298 299 301 305 305 304 303 299 298 298 300 307 308 303 304 304 307 312 312 313 312 313 314 314 314 314 315
301 302 302 302 301 301 301 301 301 301 301 301 301 301 300 299 298 296 295 296 299 303 305 303 304 302 300 298 301 306 306 308 308 307 303 302 303 306 312 312 309 312 313 315 315 315 315
301 300 300 301 300 301 301 301 300 301 301 301 300 300 300 299 297 296 295 297 302 304 301 304 303 301 301 301 306 308 305 308 307 306 304 305 306 308 308 309 309 310 311 314 315 315 316
301 301 301 301 300 300 300 300 300 299 300 300 299 299 299 296 294 296 295 297 299 301 299 304 306 304 303 303 302 303 301 304 305 306 305 305 305 306 306 309 309 309 311 313 314 316 316
300 300 300 300 299 299 299 299 299 299 299 299 299 299 297 293 293 296 295 296 298 299 298 299 299 300 299 300 300 301 302 303 304 306 308 305 305 306 306 308 308 308 311 313 314 315 316
299 299 299 299 299 298 298 298 298 298 299 299 299 299 294 293 295 294 295 297 297 296 299 299 300 300 300 300 301 302 301 301 300 300 306 307 307 307 305 306 307 308 308 309 309 312 313
299 299 299 298 298 298 298 298 298 298 298 298 298 298 293 292 295 294 296 296 296 296 299 299 300 301 301 301 302 302 301 302 301 300 302 308 308 308 306 304 305 307 308 308 308 311 314
298 298 298 298 298 297 297 298 298 298 298 296 297 298 293 293 294 295 295 295 295 297 297 296 300 301 299 300 302 300 300 302 302 303 301 303 305 308 308 307 306 307 306 307 308 311 310
297 297 297 297 297 297 297 297 297 298 296 295 297 295 294 293 294 295 295 295 296 298 292 296 299 300 299 299 299 302 302 301 302 301 302 303 305 306 308 309 307 308 307 308 308 309 309
297 297 296 296 296 296 297 297 297 296 295 296 296 294 294 295 295 296 295 295 297 294 292 295 299 297 299 299 302 303 304 303 301 301 301 301 301 305 306 306 307 307 307 306 307 308 308
296 296 296 296 296 296 296 297 297 296 294 294 293 293 294 294 295 295 295 294 293 292 295 296 297 298 299 301 302 300 301 305 306 301 302 301 300 301 307 306 307 307 308 309 311 311 312
296 296 296 295 296 297 295 296 296 295 294 294 293 293 294 295 295 295 295 293 292 295 295 297 299 299 300 301 299 300 304 305 308 304 303 306 305 300 301 307 308 307 309 310 309 312 311
296 296 297 296 295 295 294 294 295 295 294 294 294 294 294 295 295 295 294 293 294 296 298 299 299 299 299 299 300 302 305 307 307 305 309 310 303 301 301 304 311 311 310 311 312 315 316
296 295 296 296 294 295 294 295 295 296 294 294 294 293 294 295 295 295 295 297 295 297 298 298 300 299 300 300 301 305 306 305 306 304 304 310 313 310 308 302 305 310 312 313 313 314 315
296 296 295 295 294 295 293 295 295 295 294 294 293 293 296 296 297 295 296 296 297 297 298 299 300 300 300 302 303 305 305 303 304 303 306 308 310 312 311 305 303 305 310 311 313 313 312
296 295 295 294 294 294 293 296 294 295 294 294 292 291 296 296 294 296 296 297 299 299 299 300 300 300 301 302 304 305 305 303 303 303 306 309 311 313 310 314 314 306 307 310 314 313 314
295 294 293 293 292 294 294 294 294 295 294 294 292 292 294 296 293 294 296 298 299 299 300 301 301 302 302 303 303 303 302 303 303 304 306 307 312 314 312 314 312 314 311 310 309 313 313
296 296 294 293 293 294 295 295 294 295 294 294 291 290 291 297 297 295 295 296 298 298 299 300 301 301 301 301 302 302 303 303 303 304 306 306 311 312 312 312 311 314 315 315 313 311 311
296 297 295 295 293 291 295 295 294 295 294 294 289 290 293 292 295 296 295 296 296 297 297 299 300 299 300 302 301 303 302 302 302 305 303 308 309 310 309 308 311 313 314 314 315 314 310
297 298 296 295 294 292 292 294 294 294 294 293 291 292 293 293 294 295 295 295 296 295 297 298 301 299 299 301 301 302 301 301 302 303 303 304 309 309 309 308 306 308 313 313 311 316 316
297 296 295 294 294 292 294 294 293 294 294 294 292 293 292 292 294 294 295 295 295 295 296 297 297 297 300 300 299 299 299 300 301 303 303 304 306 307 307 308 308 310 312 313 311 311 314
297 296 296 295 293 292 293 293 293 294 293 293 293 292 292 292 294 294 295 295 295 294 295 295 296 298 299 298 299 302 301 301 302 302 302 304 304 306 310 309 309 307 312 311 311 311 314
297 296 296 295 293 295 293 292 293 294 294 293 293 293 293 293 294 294 294 294 294 294 295 295 296 298 297 300 303 303 302 302 302 302 302 303 304 307 308 309 306 311 309 310 311 316 314
297 296 294 293 294 294 292 292 292 294 294 294 293 293 294 292 293 293 294 294 295 294 296 296 296 296 298 299 300 303 303 303 303 303 302 302 303 306 305 308 307 306 306 307 310 317 316
295 295 294 294 294 293 292 292 293 294 293 294 293 293 293 294 292 293 295 295 293 295 296 295 295 296 296 299 302 304 304 302 305 305 306 306 305 305 305 305 306 306 305 309 314 315 315
295 295 294 294 294 293 293 293 293 293 293 293 293 293 293 293 292 292 293 293 294 294 295 294 294 297 297 299 300 301 302 302 303 302 304 307 307 305 305 306 304 305 309 313 312 312 313
295 295 294 293 293 293 292 292 292 293 293 293 293 293 293 292 291 291 292 292 293 294 294 294 294 295 297 299 299 299 300 301 300 305 303 307 306 306 304 305 303 309 310 310 309 311 310

GFSGBSN_925_thetae_114.txt.gz
Theta_e
306 305 303 303 301 303 304 303 302 302 302 301 302 302 300 301 301 298 296 296 296 297 298 299 302 305 305 304 303 301 299 301 307 314 312 311 312 314 315 316 316 317 317 317 316 317 317
304 303 303 302 302 303 302 300 301 302 301 301 301 301 301 300 298 296 295 295 296 298 300 302 304 304 306 304 299 301 301 302 302 302 309 312 311 312 313 314 314 316 316 317 317 317 317
303 302 302 302 302 299 300 301 301 301 301 301 301 301 301 296 296 294 295 295 297 301 304 303 303 306 307 305 300 303 307 309 309 309 307 307 311 312 314 314 314 314 314 316 316 316 317
303 303 303 302 301 301 301 301 300 300 301 301 300 300 299 295 294 295 295 295 299 304 301 303 304 305 306 300 303 308 308 309 307 309 308 307 305 306 307 311 314 314 315 317 318 317 317
302 301 302 301 300 301 300 299 299 299 300 300 300 299 297 293 292 294 294 295 301 302 299 305 307 305 306 305 301 301 302 303 303 307 307 307 306 306 308 309 311 312 312 313 315 317 318
302 301 301 301 300 300 299 300 299 297 299 299 300 298 294 292 293 294 294 297 298 300 300 304 306 304 304 302 302 301 302 302 304 306 307 307 308 308 307 308 309 311 312 312 312 313 316
302 301 300 301 300 299 299 299 298 297 298 299 299 297 292 292 294 294 298 300 302 304 299 301 300 301 302 301 302 303 302 303 304 305 305 307 307 306 306 307 307 309 310 311 311 313 316
302 301 300 300 299 298 298 298 297 297 298 299 299 293 292 293 294 295 298 300 298 298 301 300 301 302 301 301 302 303 301 303 304 304 304 304 306 307 306 306 306 308 309 310 310 310 312
300 299 300 299 298 298 298 298 297 297 298 298 296 292 292 293 294 298 297 298 298 298 301 299 301 303 301 300 300 303 302 303 304 304 304 304 305 306 306 308 307 307 308 308 309 310 310
300 298 300 298 298 298 297 298 297 297 298 297 295 292 292 293 296 297 297 297 297 299 300 298 301 302 300 301 301 302 302 305 305 304 304 305 304 303 304 308 308 308 308 308 309 309 311
299 298 298 297 298 297 297 297 297 298 296 297 294 293 292 292 297 297 297 297 299 302 298 297 299 299 301 301 302 303 302 304 305 305 304 305 305 305 305 305 308 308 308 309 310 310 311
298 298 297 297 297 296 296 297 297 296 296 294 293 293 293 296 298 297 297 298 300 301 299 297 298 300 301 301 302 302 302 304 306 306 305 305 305 305 305 306 306 308 309 309 310 310 312
298 297 297 297 296 296 297 296 296 295 294 294 293 293 296 298 299 297 298 299 300 297 297 297 298 300 301 301 301 301 304 307 308 309 307 307 304 305 305 305 306 307 309 308 308 310 310
297 296 296 296 296 296 296 296 295 294 294 293 293 294 296 296 296 296 298 300 299 296 297 298 299 300 300 300 301 302 304 306 303 305 307 309 307 306 306 305 305 307 308 308 307 309 310
297 296 296 296 295 297 295 295 294 294 293 293 294 296 297 297 296 298 300 300 297 298 298 300 301 300 300 301 302 303 304 306 305 306 308 308 311 307 307 305 306 306 309 308 307 309 312
297 296 296 297 296 294 294 295 294 295 293 294 297 298 298 296 296 299 301 299 298 298 299 300 301 301 301 301 303 304 305 305 304 303 305 308 309 309 311 305 306 306 307 307 307 308 308
297 296 296 297 295 296 294 295 294 295 293 294 296 300 298 297 298 300 301 299 299 299 300 301 301 301 301 302 303 304 306 305 303 303 304 307 311 311 309 305 304 307 310 308 307 309 309
298 297 296 296 295 294 294 295 294 295 293 295 296 300 297 297 299 299 300 299 298 300 300 301 301 302 302 303 304 303 306 304 303 303 305 307 309 313 312 313 312 307 309 310 310 310 310
297 296 296 294 295 294 294 295 293 294 294 296 297 297 296 297 300 299 299 299 299 299 299 301 302 302 303 303 303 302 303 303 303 303 306 306 310 311 312 314 314 315 308 311 312 311 311
296 295 294 295 295 295 294 294 293 294 294 295 297 299 297 298 298 298 299 299 299 297 298 300 301 302 301 302 302 302 303 302 303 302 305 305 311 311 311 314 315 315 315 314 309 313 312
296 295 295 294 295 295 295 295 293 294 294 295 297 297 298 300 299 298 298 298 298 298 297 298 301 301 300 301 302 301 302 302 302 302 303 304 306 310 309 309 308 313 316 315 315 310 312
296 296 296 294 294 295 296 294 293 294 294 296 297 296 296 296 297 298 297 297 297 297 297 298 300 299 299 301 302 302 302 302 302 301 303 304 305 307 306 308 309 309 314 314 315 316 313
296 296 297 296 294 295 295 294 293 295 294 295 295 295 297 296 296 297 297 296 297 296 296 298 299 297 299 301 301 300 301 302 303 303 304 305 305 304 307 307 310 313 314 313 312 314 316
297 296 297 296 295 294 294 294 293 294 294 295 294 295 296 296 296 296 295 296 296 296 296 296 297 297 298 299 300 303 304 304 305 304 304 306 306 304 307 307 312 309 311 312 312 313 315
296 297 297 296 295 295 294 294 293 294 293 294 294 295 296 296 295 295 295 296 295 295 296 296 297 298 299 300 303 303 303 303 303 304 305 305 306 306 307 308 305 310 308 311 313 315 316
296 297 297 295 295 294 293 293 293 293 294 294 294 295 295 295 295 294 295 295 295 296 297 297 297 297 300 302 303 304 303 303 303 304 305 305 306 307 305 305 308 309 307 307 311 319 317
296 297 297 295 295 293 293 293 291 292 294 294 294 294 294 295 295 295 296 296 296 296 296 296 297 297 300 302 303 303 304 303 305 305 305 306 307 308 307 305 304 307 308 311 317 318 315
297 297 297 295 294 293 293 292 292 292 294 294 294 294 294 296 295 294 294 295 295 295 296 297 297 299 300 301 302 301 302 302 304 302 305 307 308 308 307 307 306 307 309 312 312 313 314
296 297 296 295 293 293 293 292 292 293 294 294 294 293 294 294 296 294 294 294 294 294 296 296 296 296 298 300 299 300 301 302 302 305 305 307 306 309 306 307 307 308 309 310 310 312 313

GFSGBSN_925_thetae_117.txt.gz
Theta_e
308 306 305 303 302 303 304 303 303 303 303 301 299 299 300 298 296 294 294 295 295 296 299 299 300 302 308 309 306 303 301 303 303 305 311 312 311 313 317 317 318 319 319 320 320 320 319
307 306 305 304 303 305 303 301 302 302 301 300 299 299 298 295 295 293 294 294 295 298 301 303 303 303 311 308 303 304 307 308 308 308 307 306 312 312 312 313 316 318 319 320 320 320 320
306 305 304 303 303 302 299 301 302 302 300 299 299 298 295 295 293 293 294 294 295 300 303 301 302 308 310 308 306 310 308 307 311 309 312 311 307 311 313 313 315 315 316 317 318 318 319
305 304 304 303 302 301 302 302 301 300 299 299 297 295 294 293 292 294 294 295 298 302 301 303 305 308 309 304 305 304 304 304 304 305 308 311 310 308 309 310 311 311 316 318 318 319 319
305 305 305 304 301 302 301 300 299 299 299 298 296 294 294 292 293 294 295 298 299 300 299 304 310 308 308 306 304 304 304 305 305 305 305 309 309 310 308 308 309 310 310 313 316 317 319
304 304 304 302 301 301 300 300 300 298 298 298 296 294 293 292 294 294 298 298 300 303 304 305 308 305 305 304 304 304 304 304 306 306 307 308 310 310 309 307 308 308 311 312 314 315 316
303 303 303 303 301 300 300 300 298 296 298 298 296 293 292 292 294 298 302 303 304 309 303 303 303 304 304 303 304 304 304 304 306 307 307 308 307 309 308 308 308 307 308 309 311 314 314
303 302 303 303 301 300 299 299 297 296 298 296 293 292 292 292 294 299 301 303 300 301 305 303 304 304 303 302 302 303 303 304 304 306 307 307 307 307 307 308 308 307 307 309 309 310 311
302 302 302 302 300 299 299 298 296 296 297 295 293 292 292 293 298 301 300 300 300 301 307 302 303 303 302 302 302 303 304 304 304 305 306 306 307 307 306 306 307 308 307 308 308 309 311
302 301 301 301 300 299 298 298 298 297 297 295 293 292 292 293 299 300 301 299 300 302 309 302 302 304 302 303 303 303 304 303 304 305 305 306 306 305 306 306 306 307 309 308 307 308 309
300 300 300 300 299 299 297 298 298 298 296 294 293 292 292 296 300 301 300 300 301 305 308 301 301 301 302 302 303 304 303 304 305 307 307 307 306 305 306 306 306 305 308 309 309 309 309
299 299 300 299 298 297 297 297 298 297 295 293 292 293 296 300 301 300 300 301 303 311 304 300 301 301 302 303 302 303 303 306 306 306 305 306 306 307 305 306 307 307 307 308 310 310 311
298 299 298 298 298 297 297 298 297 296 294 293 293 293 298 300 303 300 301 303 307 303 300 300 300 301 302 302 302 302 303 304 306 305 305 305 306 306 307 306 306 307 308 308 311 312 313
298 298 297 297 297 297 297 297 296 294 293 293 293 296 298 299 300 301 303 305 306 300 300 301 301 302 301 301 302 302 303 304 304 305 307 306 308 305 306 307 306 306 307 309 310 311 310
298 297 297 298 297 297 297 296 295 294 293 293 295 300 301 300 301 301 305 308 302 301 301 301 302 301 301 302 302 303 304 305 304 304 308 308 307 305 307 308 309 306 308 308 310 310 311
298 297 297 297 297 297 297 295 295 294 293 294 300 301 301 300 301 303 305 301 301 300 301 302 302 301 302 302 303 303 304 305 305 303 304 307 309 307 308 312 311 307 307 308 310 310 310
298 298 297 297 297 295 294 295 295 295 293 294 299 303 301 300 301 304 308 302 301 301 301 302 302 302 302 303 303 304 304 305 304 303 303 306 310 307 309 312 310 307 307 307 308 310 310
298 297 297 296 297 297 295 295 296 294 293 295 299 304 300 299 304 302 303 301 299 301 302 302 302 303 303 303 303 303 305 303 303 303 304 307 308 310 308 311 313 314 307 307 308 309 309
298 297 296 297 296 295 295 294 296 295 294 298 301 301 298 300 306 302 302 300 300 301 301 301 302 302 303 303 302 303 303 303 303 303 304 304 307 309 309 312 311 313 311 307 309 309 308
297 297 296 296 296 296 295 294 294 294 293 297 300 302 300 300 301 303 302 301 300 300 299 300 301 302 302 302 302 303 303 303 303 303 304 304 307 308 311 313 310 313 314 311 310 314 309
297 297 296 295 296 296 296 295 294 294 293 297 300 302 302 302 302 301 301 300 300 299 300 301 300 301 302 301 301 302 302 303 302 303 303 304 307 307 305 305 308 312 316 312 314 315 314
297 297 295 294 295 295 297 296 295 294 293 297 300 299 299 300 301 301 299 299 299 299 299 299 300 300 301 300 301 302 303 303 302 303 304 305 307 305 306 309 309 314 317 315 311 310 312
297 296 295 294 294 294 296 295 293 294 294 297 297 297 300 299 300 300 301 299 298 298 298 298 299 300 300 300 301 302 302 302 303 305 305 306 308 308 306 307 310 318 315 315 316 317 313
297 296 295 296 295 294 295 295 294 294 294 297 297 297 299 301 298 299 297 298 298 298 299 298 298 299 299 300 301 302 303 304 305 305 306 306 307 307 307 308 316 313 310 314 315 314 315
297 297 296 296 296 296 295 295 294 294 293 296 296 297 298 300 298 297 297 298 298 298 298 298 298 299 300 300 302 302 303 303 304 305 305 307 307 309 308 308 310 311 309 309 312 315 317
297 297 297 297 297 296 295 295 294 293 294 295 295 295 297 299 298 297 297 297 298 298 298 298 299 299 299 302 302 303 303 304 303 303 305 306 308 309 307 306 310 309 308 308 311 319 313
297 296 297 297 297 295 295 294 294 293 293 295 296 296 296 297 297 296 297 298 298 298 299 298 299 299 300 303 303 303 303 302 305 305 305 307 308 309 308 309 306 309 308 310 317 316 313
297 296 296 298 296 296 294 293 294 293 293 295 296 296 296 297 297 296 297 297 297 297 297 299 299 301 301 302 302 303 303 303 303 304 306 305 309 311 309 308 310 309 308 312 311 311 308
296 297 297 297 297 295 294 294 293 292 292 294 296 296 295 296 297 297 296 296 296 296 298 298 299 298 299 301 303 302 303 303 303 305 306 308 306 308 307 308 307 304 305 307 306 307 306

GFSGBSN_925_thetae_120.txt.gz
Theta_e
310 310 310 307 305 303 304 303 303 304 303 302 300 301 300 295 295 294 294 294 294 295 298 300 302 302 309 314 307 305 308 308 307 306 306 307 308 312 311 312 316 317 317 318 319 320 321
308 309 308 306 304 304 305 305 303 303 302 300 299 300 296 295 293 293 294 294 295 296 299 301 301 302 315 311 305 310 309 308 311 311 311 312 310 308 310 311 312 313 314 316 318 319 320
309 308 306 305 304 305 305 302 302 301 301 299 299 299 295 293 293 294 294 295 296 298 300 300 302 308 313 309 308 306 306 306 306 307 309 309 312 312 308 309 312 313 314 315 315 317 318
309 308 306 305 304 304 302 303 303 302 300 298 297 295 294 293 293 294 294 299 297 300 299 301 307 312 311 305 306 305 306 306 306 306 306 306 309 311 310 309 309 309 309 311 312 315 317
308 307 306 305 304 301 303 302 301 299 298 298 297 295 294 292 293 295 297 301 299 299 300 305 311 311 310 306 306 305 306 305 305 307 307 306 309 309 309 308 307 307 308 308 309 312 312
306 305 305 305 304 301 302 301 300 299 297 297 296 294 293 292 293 299 301 302 302 303 304 307 309 307 307 306 304 305 305 305 306 308 308 308 309 309 309 308 308 307 308 310 310 310 313
305 304 306 305 304 302 302 301 300 299 297 298 295 293 292 292 295 301 302 304 305 310 305 303 304 305 305 304 303 304 305 304 306 306 306 308 308 308 307 309 309 309 309 308 309 310 311
304 303 304 303 303 302 301 301 300 296 299 297 294 293 292 292 297 302 303 304 302 302 306 304 305 306 305 303 304 305 304 305 305 305 306 306 307 307 307 307 307 307 308 309 309 309 309
303 302 301 303 303 302 300 300 299 297 298 296 294 292 292 293 299 303 302 301 301 303 309 304 304 304 302 303 303 304 305 304 304 304 305 306 306 307 306 306 307 307 307 308 309 309 309
301 300 301 303 302 300 300 299 299 298 299 296 294 292 292 296 300 303 304 301 302 304 312 305 305 306 303 303 304 304 305 304 304 305 307 307 307 307 307 307 307 307 307 307 307 308 307
301 300 300 301 301 300 300 299 299 299 299 295 293 292 293 296 303 304 301 301 302 308 313 303 302 302 303 303 303 304 304 304 304 306 306 306 305 304 305 305 305 307 308 307 307 307 309
301 301 301 301 301 300 298 297 298 299 297 295 293 292 298 302 304 302 302 303 305 315 311 302 302 302 302 304 303 304 304 305 305 306 306 304 304 305 305 306 307 308 308 306 308 308 308
300 300 301 301 300 298 298 297 298 297 295 293 292 293 299 301 306 302 303 306 310 311 302 302 302 302 302 303 303 303 303 304 305 308 306 304 304 305 306 306 306 307 309 307 309 310 309
300 300 300 299 298 297 297 298 298 296 294 292 292 295 301 301 302 303 305 309 311 303 301 303 302 302 303 302 303 303 303 303 304 306 305 304 307 305 305 305 309 312 310 309 309 311 309
300 299 299 298 297 297 297 297 296 294 293 292 294 301 303 303 302 303 308 312 306 304 302 302 302 302 302 303 303 303 303 304 304 304 307 306 305 304 306 306 307 313 309 307 309 310 311
300 299 298 298 297 296 298 297 296 294 293 293 299 302 304 302 302 305 309 309 303 302 301 302 302 302 302 303 303 303 303 304 304 304 306 304 307 305 306 307 310 312 311 310 308 308 309
299 298 297 298 297 297 298 297 295 295 293 293 299 304 303 301 302 308 310 306 303 302 301 302 303 303 303 303 303 303 303 304 304 303 303 306 307 306 306 310 313 314 316 312 309 308 309
299 298 298 297 297 296 297 296 296 294 292 295 302 306 302 301 307 307 307 303 299 302 302 302 303 303 303 303 303 303 304 303 303 304 303 304 307 306 306 309 309 309 311 313 309 308 310
298 298 296 297 297 297 297 296 296 293 293 300 302 304 301 302 308 306 304 302 301 302 301 302 302 302 303 302 303 302 302 302 303 303 304 304 303 308 306 307 306 307 308 310 313 315 311
298 298 297 296 297 297 297 296 296 293 293 297 304 305 302 300 303 305 305 303 302 300 301 301 301 302 302 303 303 301 301 302 303 303 303 304 306 307 309 309 308 308 310 312 315 315 311
298 298 297 295 297 297 296 295 296 293 293 297 303 304 303 304 304 303 303 302 301 301 300 300 301 301 301 302 303 301 301 301 302 303 303 304 307 307 306 305 306 309 310 315 315 313 316
298 298 297 296 295 296 296 296 295 294 293 298 302 302 301 302 303 303 301 302 301 301 300 301 300 300 301 301 301 300 300 301 302 302 302 305 307 307 308 306 306 307 313 317 314 312 312
298 297 297 296 295 296 295 296 295 294 294 297 299 299 301 301 302 302 302 301 300 300 300 300 299 299 300 300 300 300 301 301 301 302 304 306 307 308 309 306 307 314 314 313 314 317 318
298 297 297 296 294 295 294 296 295 293 293 298 299 299 299 302 300 300 300 301 300 299 300 300 300 299 299 300 300 301 301 302 303 304 305 306 307 308 310 309 313 313 310 308 312 313 315
299 298 297 297 295 294 294 295 295 294 293 296 298 298 300 301 301 299 299 299 299 299 299 299 299 299 300 300 300 301 303 302 304 305 305 305 307 309 309 308 307 311 310 310 310 313 311
298 298 297 296 296 295 294 294 295 295 294 296 298 297 298 300 300 299 299 299 299 299 299 300 300 299 300 300 302 302 303 302 303 303 306 306 307 309 310 310 309 311 307 310 311 316 311
298 299 298 297 296 297 296 296 295 294 294 295 297 297 298 299 299 298 298 299 299 298 298 300 300 299 300 301 303 303 303 304 304 305 305 306 308 309 311 310 311 306 307 309 308 310 309
298 298 298 297 297 297 297 296 296 294 293 295 296 297 297 298 298 298 297 298 299 298 299 300 300 300 301 302 302 303 304 304 303 303 306 306 307 308 308 309 311 303 306 307 307 305 304
298 298 298 297 297 297 297 295 295 293 293 294 297 297 297 297 298 298 298 298 298 297 298 299 299 300 299 300 303 303 303 303 302 303 305 307 307 309 308 307 303 300 300 299 301 302 301

GFSGBSN_925_thetae_123.txt.gz
Theta_e
310 311 310 309 309 308 306 304 301 302 303 303 301 299 295 295 294 294 295 295 295 296 297 300 300 300 310 315 304 309 307 306 307 307 308 309 307 303 305 306 307 309 310 313 314 314 315
310 310 309 309 309 306 304 305 305 304 304 302 300 298 295 294 293 294 294 294 296 297 299 300 301 302 314 310 307 306 306 305 306 306 305 307 308 310 310 304 306 308 309 309 310 311 312
310 310 309 310 307 304 305 305 304 302 301 301 299 297 295 294 293 293 294 295 299 297 300 299 303 310 312 306 306 306 305 306 306 306 305 306 305 308 309 308 307 307 306 307 308 311 311
311 310 309 309 306 304 305 304 302 302 302 300 299 296 295 293 293 293 296 298 300 298 300 306 308 312 310 306 307 304 305 306 305 305 306 307 307 304 309 308 308 306 304 305 307 308 309
311 310 309 307 305 304 303 301 301 302 300 299 297 296 294 293 293 296 300 301 302 301 302 305 311 312 308 307 303 304 305 305 305 305 306 307 306 305 307 306 305 304 303 303 305 307 307
311 310 309 307 305 303 301 301 301 301 299 297 297 297 293 292 293 300 301 303 302 302 306 306 308 308 306 305 303 303 304 304 304 304 304 306 305 307 305 304 306 304 303 305 305 306 307
311 309 308 306 304 302 303 302 301 300 299 297 297 295 293 292 295 301 302 305 303 307 305 302 303 304 305 304 303 304 304 304 304 304 303 304 302 302 303 304 305 304 305 305 306 306 306
310 309 307 306 304 303 302 302 301 300 297 298 296 294 293 292 297 302 302 302 302 301 304 304 305 305 305 303 303 303 305 303 303 302 302 302 303 305 306 306 306 305 305 305 305 306 306
309 307 305 306 304 303 301 301 301 299 298 297 295 294 292 293 299 302 301 301 301 303 305 305 304 304 302 302 302 303 304 304 302 301 302 304 306 306 305 304 305 306 306 305 305 305 305
308 305 305 305 303 301 301 301 300 298 296 297 294 293 292 296 303 303 302 301 302 304 310 303 304 304 303 302 303 303 305 303 302 302 303 305 305 304 303 303 303 303 305 306 306 307 305
305 304 304 301 302 302 301 300 299 298 297 297 294 292 293 297 300 303 301 301 301 306 314 304 302 302 303 302 302 303 304 303 302 302 304 305 304 303 302 303 305 306 306 306 307 307 306
304 301 301 304 302 301 300 299 298 299 299 297 293 292 298 302 303 302 301 303 304 312 313 302 302 302 302 303 303 303 303 302 303 305 305 305 303 302 303 304 304 304 307 307 307 307 307
302 301 300 301 301 301 299 298 297 297 297 294 292 292 298 301 304 302 301 305 309 311 304 301 302 302 302 303 302 303 302 302 302 305 305 304 303 303 304 302 303 305 309 311 309 308 307
301 301 301 301 301 300 299 298 298 298 296 293 292 293 300 302 302 302 304 307 311 306 303 303 302 301 302 302 302 303 302 302 304 303 304 306 306 303 303 302 305 305 307 310 314 309 307
301 301 301 301 300 299 298 297 298 296 293 292 293 299 302 303 300 303 305 306 308 305 303 302 301 301 303 303 302 303 302 303 303 303 304 305 304 302 303 303 305 310 313 311 315 311 310
300 300 299 299 299 298 297 297 296 296 293 292 299 302 304 302 299 304 306 309 304 302 301 301 302 302 302 302 302 303 303 304 304 304 304 305 304 302 304 304 307 308 311 315 311 309 308
300 299 298 298 298 298 298 297 296 295 294 293 298 302 302 300 302 304 305 306 303 302 301 301 303 303 303 303 303 302 303 304 304 304 303 303 304 304 303 304 304 308 310 312 314 311 308
298 298 297 297 297 296 299 297 296 294 292 294 300 303 302 302 304 305 305 306 300 302 302 302 302 303 303 303 303 303 303 302 303 303 303 303 301 304 302 302 305 307 307 310 314 316 311
298 297 297 297 297 297 297 296 296 293 293 299 300 302 301 302 304 304 304 303 301 301 302 303 303 303 303 302 302 303 302 302 301 303 302 302 300 304 304 303 306 306 306 306 312 314 313
298 298 296 296 297 297 296 295 296 293 294 297 301 303 300 299 301 303 305 303 301 300 301 301 301 301 301 302 302 303 302 302 302 302 303 303 303 307 305 304 305 307 307 307 311 316 313
298 297 296 296 297 297 296 296 296 294 294 296 301 303 303 302 302 302 303 303 303 302 300 300 301 301 301 301 302 302 301 300 300 302 301 301 301 301 304 305 306 306 308 313 315 315 315
298 298 297 296 296 297 295 295 294 294 294 298 299 300 301 300 303 302 303 302 303 302 301 301 301 301 300 299 300 299 299 299 300 300 300 299 301 304 305 306 306 307 312 313 314 314 316
298 298 297 296 296 296 295 295 295 293 293 297 299 299 299 302 300 301 301 302 301 301 301 300 299 298 299 300 298 298 298 298 299 299 299 300 302 304 307 307 307 313 313 311 311 311 312
298 298 298 297 296 296 295 295 295 293 293 297 299 299 298 300 299 300 301 301 302 300 299 300 299 299 299 298 298 298 299 299 299 300 300 301 301 304 307 307 309 310 306 307 310 309 307
299 298 297 297 296 295 295 295 295 292 293 295 297 298 298 299 299 300 300 300 299 298 298 298 299 298 298 298 299 300 300 301 302 305 306 306 306 307 309 309 308 306 304 307 307 311 307
299 298 297 297 296 294 295 294 295 295 293 294 296 298 297 295 298 299 298 298 297 297 297 299 299 299 298 298 298 301 302 302 303 304 306 305 306 305 308 311 312 304 303 303 306 311 305
298 298 298 297 297 295 294 294 294 295 295 294 297 297 297 294 296 298 297 298 298 297 296 297 300 299 299 296 299 301 301 302 304 305 304 303 304 307 307 308 309 301 302 303 305 305 303
298 298 298 298 297 296 295 294 295 294 294 295 296 297 297 296 296 298 299 298 297 296 296 298 298 299 297 297 299 298 301 302 303 304 305 305 305 303 306 307 303 299 300 302 301 301 301
298 299 299 299 298 297 296 296 297 295 294 294 296 296 297 296 296 297 296 296 298 297 296 296 298 299 299 297 301 299 300 297 300 300 302 305 303 303 304 304 302 298 298 297 298 299 299

GFSGBSN_925_thetae_126.txt.gz
Theta_e
314 313 312 312 310 310 309 307 305 302 301 302 303 300 298 296 295 294 294 295 296 296 297 298 299 301 311 312 304 305 306 305 306 306 305 305 307 307 308 308 304 304 307 306 307 307 308
315 313 312 311 310 309 309 307 305 302 304 304 301 299 295 295 295 294 294 294 296 298 297 299 300 303 312 307 305 305 305 305 305 306 305 304 304 304 308 308 306 304 305 304 304 305 306
315 314 311 311 310 309 308 306 304 304 302 300 300 298 296 295 294 293 294 295 296 299 298 300 305 310 311 306 305 305 304 305 305 304 304 305 305 304 305 308 307 306 304 304 303 304 307
316 314 312 310 310 309 308 304 305 303 302 301 300 298 295 295 294 293 294 298 299 301 299 303 308 311 310 305 305 304 305 305 304 304 304 305 306 304 304 306 306 307 304 301 302 304 304
318 315 313 311 310 309 307 304 304 302 302 301 298 296 295 294 293 293 298 300 302 302 302 304 309 311 308 306 303 303 303 304 304 305 305 305 304 303 305 305 302 302 303 302 304 304 303
320 315 313 311 310 309 306 304 303 302 301 299 297 296 294 293 293 295 301 302 303 302 305 305 307 306 306 305 304 303 304 304 304 303 303 302 301 303 301 301 303 303 303 303 303 303 303
318 316 313 311 310 308 305 303 302 301 300 298 296 295 294 293 293 300 301 304 301 307 303 303 303 304 304 304 303 303 305 304 302 301 301 302 301 301 302 302 303 303 303 304 304 305 303
318 315 313 311 309 307 305 304 302 301 300 298 295 294 293 292 294 301 301 301 301 301 302 304 304 305 305 303 302 302 304 303 301 300 301 300 302 304 303 303 302 302 302 302 303 304 305
319 315 313 310 308 306 305 304 302 300 298 297 294 293 293 292 296 301 301 300 301 302 304 307 304 305 303 302 301 302 304 303 301 301 301 301 304 304 303 302 302 302 302 302 304 305 305
319 315 312 309 307 305 304 303 301 298 298 295 294 293 292 294 301 302 301 301 301 303 304 304 304 304 302 301 301 302 304 302 301 301 301 304 304 303 302 302 302 302 304 304 304 304 305
318 314 311 308 305 304 303 301 301 300 297 294 295 293 292 296 300 302 302 301 301 306 309 305 304 303 301 301 302 302 303 302 301 301 302 302 303 303 302 302 302 303 302 304 305 307 306
316 312 309 306 305 304 301 301 300 299 297 296 294 292 294 301 301 302 301 302 304 308 309 303 301 301 301 302 302 302 302 301 303 304 303 303 302 302 302 302 301 301 304 304 305 307 309
312 309 307 306 303 302 301 301 299 299 299 296 292 292 299 301 303 302 301 304 310 309 303 301 301 301 301 301 302 302 301 301 302 302 302 302 302 302 302 301 301 302 305 309 307 307 308
309 307 305 303 302 301 300 300 298 299 298 295 292 292 297 302 302 301 305 306 310 309 303 302 301 300 301 302 302 302 301 301 302 302 302 304 303 302 302 301 302 303 308 312 313 312 310
305 304 304 302 301 301 300 299 298 298 295 292 292 294 301 302 301 303 305 308 305 304 304 302 301 301 303 302 302 302 301 301 302 302 301 303 303 302 301 301 302 308 308 307 313 314 313
302 302 301 301 300 300 298 297 298 296 293 292 297 301 303 302 299 305 305 309 305 302 301 302 303 302 302 302 302 301 302 302 303 303 301 302 302 301 302 301 304 307 305 310 310 315 314
300 300 300 299 299 298 299 299 297 294 292 294 299 302 302 302 302 304 305 306 302 301 302 302 303 303 302 302 302 301 301 302 303 303 302 301 302 302 301 301 301 302 307 307 310 311 316
299 299 299 298 298 297 297 297 296 295 292 296 299 302 302 301 302 304 304 307 302 301 302 302 302 302 301 302 302 301 302 301 302 302 302 301 299 302 301 301 302 302 303 306 312 310 312
298 298 298 297 297 297 298 297 296 294 294 297 300 301 301 302 302 304 305 302 301 302 302 302 303 303 302 301 301 302 301 301 300 301 301 300 298 302 300 301 303 302 304 305 309 311 312
297 297 298 297 298 298 297 297 296 296 296 299 300 301 298 296 300 303 305 303 301 300 300 300 300 300 300 300 301 302 302 301 300 299 305 301 300 298 300 302 302 303 305 308 312 314 312
297 297 297 297 297 297 297 296 296 295 295 298 299 301 299 298 299 302 302 304 303 301 300 300 300 299 300 299 300 300 299 299 299 300 299 299 298 299 299 300 302 304 309 308 312 310 312
297 297 297 297 297 297 297 296 296 294 295 298 298 300 299 301 303 301 302 303 303 302 301 300 299 300 298 298 298 298 298 298 298 298 299 297 298 301 302 302 304 307 308 308 310 308 307
298 297 296 297 297 297 295 294 295 293 295 296 297 298 299 300 299 301 301 301 301 301 300 300 299 297 298 298 298 297 297 297 297 297 297 298 299 301 303 302 304 312 307 306 309 306 307
298 298 296 296 296 296 295 295 295 293 297 297 297 298 297 298 299 300 302 302 301 300 299 299 298 297 298 297 297 297 297 297 297 298 298 299 300 300 303 305 305 305 303 303 305 307 305
298 298 297 296 296 296 295 295 294 292 294 296 297 297 297 298 298 299 300 299 298 297 297 297 298 297 296 298 298 299 299 300 301 305 303 303 305 305 309 308 306 303 301 301 303 306 303
299 298 298 297 296 296 295 295 294 293 293 293 297 298 296 297 298 298 298 297 296 295 296 297 298 297 297 296 297 300 301 301 302 304 304 303 304 305 306 307 308 301 300 300 301 306 301
299 298 298 297 296 295 294 294 295 294 293 293 297 297 297 295 295 297 297 297 296 295 294 297 299 298 296 292 298 300 300 301 304 303 304 303 302 305 305 305 303 299 298 299 304 301 300
299 299 298 297 296 295 294 294 295 295 294 293 296 297 297 294 295 297 298 297 296 294 296 296 295 296 295 295 298 296 300 301 301 303 304 302 303 299 302 302 301 298 298 299 298 298 299
299 299 298 297 297 295 294 294 294 295 294 293 295 296 297 294 295 296 296 296 297 296 294 294 296 297 296 296 298 298 299 295 299 298 299 297 298 298 299 300 300 297 296 296 297 297 297

GFSGBSN_925_thetae_129.txt.gz
Theta_e
318 315 315 314 312 312 311 310 309 306 304 300 301 302 301 298 295 295 294 293 294 295 299 298 298 300 308 312 303 305 306 305 305 305 305 304 304 305 307 307 305 303 304 304 304 303 303
320 317 315 314 313 313 311 310 309 307 304 301 302 302 300 296 295 295 294 294 295 297 299 299 300 304 311 311 305 305 305 305 305 305 304 304 304 304 304 307 306 305 305 305 302 302 301
322 319 317 315 314 313 311 310 309 307 303 302 303 300 299 296 295 294 295 295 297 299 301 300 307 310 311 308 305 305 304 305 304 304 303 304 304 304 304 303 306 306 305 302 302 302 302
324 322 319 316 314 313 311 310 309 306 303 302 301 300 298 295 295 294 295 296 298 301 301 300 308 310 312 305 305 304 304 304 305 304 304 304 304 303 304 304 304 303 302 300 302 302 302
323 323 320 319 315 313 311 310 309 306 303 302 300 300 297 295 294 294 295 298 300 302 301 303 309 310 308 306 304 303 303 303 304 304 304 304 304 302 303 303 300 299 301 302 302 302 302
323 322 322 319 317 314 311 310 308 305 303 301 301 298 295 294 294 295 297 300 302 302 304 305 306 307 306 305 304 303 304 303 303 302 302 301 299 300 298 299 302 302 301 301 301 301 302
321 322 320 320 316 314 311 310 308 305 303 300 300 297 294 294 294 297 299 303 301 306 304 305 305 304 304 304 302 303 304 303 301 299 300 300 299 302 302 302 302 301 300 300 301 300 301
311 321 321 318 317 314 311 309 308 305 302 301 299 296 297 297 294 301 301 300 301 301 300 302 303 303 304 303 301 301 304 302 300 300 300 299 301 302 302 301 301 301 301 301 301 302 304
308 310 320 318 316 313 311 309 307 304 301 300 298 300 302 294 295 301 300 300 301 301 300 307 304 304 303 302 301 301 303 302 300 301 300 300 303 303 302 301 301 300 300 301 303 302 302
308 310 314 320 315 313 310 308 305 303 301 300 300 300 294 293 299 301 301 301 301 303 304 304 303 303 301 300 301 301 303 301 301 301 301 302 303 302 301 301 301 301 301 302 301 302 304
308 310 313 319 315 312 309 307 304 302 301 299 300 296 293 295 302 302 301 301 302 307 304 305 303 303 300 300 301 302 301 301 301 301 301 302 302 301 301 301 300 300 301 301 302 303 303
308 311 315 318 314 310 307 306 304 302 300 300 296 294 292 296 301 301 301 300 304 308 306 304 301 301 301 301 301 301 301 301 302 302 301 301 301 301 302 301 300 301 301 303 304 304 306
315 314 317 317 312 309 306 305 302 301 300 299 295 293 295 301 302 302 301 304 308 309 303 301 301 302 300 301 301 301 301 302 301 300 300 301 302 301 301 300 300 300 302 308 309 307 307
316 315 317 314 309 307 305 303 302 300 299 296 294 292 300 302 302 301 304 306 310 304 303 302 301 300 300 301 301 301 300 300 301 301 300 302 302 301 301 300 300 301 307 308 310 308 308
316 317 315 310 307 304 303 302 300 299 298 296 293 293 297 302 302 302 303 303 302 306 303 302 300 300 301 302 302 301 301 300 301 301 300 302 302 301 300 301 300 302 305 304 309 309 311
317 314 309 306 304 303 302 300 299 298 296 292 294 299 301 301 302 304 303 306 307 303 301 302 301 301 301 301 301 301 301 301 302 302 299 301 301 300 301 301 303 304 302 306 310 311 309
309 307 304 303 302 301 300 299 298 297 294 293 301 302 302 301 303 301 303 305 302 302 302 302 302 302 301 301 301 300 300 301 302 302 301 300 300 301 300 299 299 300 301 304 307 308 312
298 299 301 300 299 298 298 298 297 295 293 299 300 302 301 301 304 302 304 307 302 301 302 302 302 301 302 302 301 300 302 300 300 301 300 299 298 301 299 299 300 301 302 303 309 308 308
297 298 297 298 298 298 297 297 296 296 297 299 301 301 300 301 302 304 305 302 302 302 302 302 303 303 302 301 301 301 301 300 299 299 300 299 297 300 299 299 299 300 300 303 309 311 312
298 297 297 297 297 297 297 296 295 295 296 300 300 299 297 297 299 304 304 301 301 301 300 301 300 300 300 300 300 301 301 300 299 298 302 301 299 295 295 297 299 299 300 304 309 309 310
298 298 298 298 298 297 296 296 296 296 298 299 298 300 298 297 300 302 303 303 301 301 300 300 299 299 299 299 299 299 298 298 298 299 298 298 297 299 300 300 299 299 303 306 308 309 309
298 297 297 298 299 298 297 296 296 296 297 298 299 300 299 300 300 302 302 303 302 301 300 300 301 299 298 298 298 298 297 297 297 297 297 296 296 299 300 300 300 302 306 304 308 308 304
297 297 297 297 296 297 297 296 295 295 296 295 297 297 299 299 299 300 301 302 302 300 300 300 299 298 298 298 297 296 296 295 296 297 296 297 299 300 302 301 302 309 304 302 304 305 304
297 297 297 297 296 297 296 296 293 295 297 297 297 297 298 299 299 300 303 302 301 299 299 298 297 297 298 297 296 296 296 295 295 295 296 298 299 300 302 303 301 302 304 301 301 305 301
297 297 297 298 297 296 295 294 293 296 297 298 297 297 297 297 298 299 300 299 298 298 297 297 297 297 295 296 296 298 298 299 301 300 297 298 300 301 306 307 305 304 302 300 301 302 299
297 297 297 296 296 295 295 294 293 295 296 297 297 297 296 298 297 298 297 297 296 296 296 297 297 295 295 295 297 300 299 300 302 302 303 302 302 302 304 305 303 300 300 298 299 302 297
298 297 297 296 296 295 295 295 292 293 295 297 297 297 296 295 296 297 296 297 295 295 295 297 298 296 295 293 298 300 299 300 303 302 304 302 301 303 304 305 301 300 297 297 304 297 297
299 298 297 297 295 294 295 294 293 292 296 297 297 297 296 295 296 297 297 296 295 294 296 296 296 296 295 295 298 296 298 300 300 301 303 301 300 297 300 301 299 297 298 299 297 296 297
298 298 298 297 295 295 294 295 295 293 294 296 296 297 296 294 295 296 295 296 297 295 293 293 296 296 296 297 297 297 298 294 298 298 298 298 297 297 298 297 298 297 296 295 296 295 296